Location: *
(51.8167°N, 12.5000°E)
Time: 12:29:50
(UTC+00:00)

Cosmos 2227 Rocket - Pass Details

Date: 16 September 2019
Orbit: 837 x 847 km, 71.0° (Epoch: 18 October)

Event Time Altitude Azimuth Distance (km) Brightness Sun altitude
Exits shadow 21:20:30 15° 247° (WSW) 2,102 4.3 -31.4°
Maximum altitude 21:24:45 41° 312° (NW) 1,217 3.3 -31.7°
Drops below altitude 10° 21:30:06 10° 22° (NNE) 2,478 5.0 -32.1°
Sets 21:32:44 0° 30° (NNE) 3,418 5.8 -32.3°
